This is the latest recevied weather packets stored in our database for station/object W7MB. If no packets are shown the sender has not sent any weather packets the latest 10 day(s).
| Time | Temp. | Humidity | Pressure | Rain* | Wind** | Luminosity | Snow |
|---|---|---|---|---|---|---|---|
| 1777501443 | 19.44° C | 45% | 1021.4 hPa | 0 mm | - | - | - |
| 1777501083 | 20° C | 43% | 1021.5 hPa | 0 mm | - | - | - |
| 1777500723 | 20.56° C | 44% | 1021.5 hPa | 0 mm | - | - | - |
| 1777500363 | 21.11° C | 41% | 1021.6 hPa | 0 mm | - | - | - |
| 1777500004 | 21.67° C | 43% | 1021.6 hPa | 0 mm | - | - | - |
| 1777499643 | 22.22° C | 42% | 1021.5 hPa | 0 mm | - | - | - |
| 1777499283 | 22.22° C | 43% | 1021.6 hPa | 0 mm | - | - | - |
| 1777498923 | 22.22° C | 45% | 1021.6 hPa | 0 mm | - | - | - |
| 1777498563 | 22.78° C | 40% | 1021.6 hPa | 0 mm | - | - | - |
| 1777498204 | 22.78° C | 43% | 1021.7 hPa | 0 mm | - | - | - |
| 1777497844 | 23.33° C | 41% | 1021.6 hPa | 0 mm | - | - | - |
| 1777497483 | 23.33° C | 41% | 1021.7 hPa | 0 mm | - | - | - |
| 1777497123 | 23.33° C | 46% | 1021.7 hPa | 0 mm | - | - | - |
| 1777496763 | 23.33° C | 40% | 1021.8 hPa | 0 mm | - | - | - |
| 1777496403 | 22.78° C | 47% | 1021.8 hPa | 0 mm | - | - | - |
| 1777496043 | 22.78° C | 48% | 1021.8 hPa | 0 mm | - | - | - |
| 1777495683 | 22.22° C | 47% | 1021.8 hPa | 0 mm | - | - | - |
| 1777495324 | 21.67° C | 49% | 1021.8 hPa | 0 mm | - | - | - |
| 1777494963 | 21.11° C | 50% | 1021.9 hPa | 0 mm | - | - | - |
| 1777494603 | 21.11° C | 43% | 1021.8 hPa | 0 mm | - | - | - |
| 1777494243 | 21.11° C | 49% | 1022 hPa | 0 mm | - | - | - |
| 1777493883 | 21.11° C | 48% | 1021.9 hPa | 0 mm | - | - | - |
| 1777493523 | 22.22° C | 39% | 1022 hPa | 0 mm | - | - | - |
| 1777493164 | 22.78° C | 41% | 1022.1 hPa | 0 mm | - | - | - |
| 1777492804 | 22.78° C | 44% | 1021.9 hPa | 0 mm | - | - | - |
* Rain latest hour (hover to see other rain measurements)
** Current wind speed in m/s (hover to see current wind gust speed)